GW0327 Weather Reports


time (UTC)temp
C
wind
direction
speed
KPH
gust
KPH
rain 1hr
cm
rain 24hr
cm
rain mn
cm
humidity
%
barometer
mb
20260506234527 8 5 8.0 14.5 0.15 6.45 0.25 91 1011.5
20260506233036 8 20 6.4 12.9 0.13 6.40 0.20 90 1011.5
20260506231531 8 309 12.9 19.3 0.15 6.35 0.18 91 1011.4
20260506230026 8 355 8.0 19.3 0.15 6.35 0.15 91 1011.3
20260506224535 7 10 11.3 17.7 0.15 6.73 0.10 91 1011.4
20260506223033 7 30 9.7 16.1 0.15 6.71 0.08 92 1011.4
20260506221525 7 355 9.7 16.1 0.15 6.65 0.03 92 1011.4
20260506220037 7 355 9.7 16.1 0.15 6.63 0.00 92 1011.3
20260506214532 7 349 6.4 9.7 0.18 7.72 6.58 91 1011.4
20260506213024 7 329 6.4 16.1 0.18 7.70 6.55 91 1011.3
20260506211537 7 24 12.9 19.3 0.20 7.65 6.50 91 1011.3
20260506210046 7 30 8.0 12.9 0.23 7.62 6.45 91 1011.4
20260506204522 7 34 4.8 12.9 0.20 7.67 6.40 91 1011.4
20260506203019 7 27 16.1 19.3 0.23 7.65 6.35 89 1011.0
20260506201535 8 24 14.5 24.1 0.20 7.57 6.30 89 1011.3
20260506200028 8 63 11.3 32.2 0.20 7.52 6.25 91 1011.0
20260506194522 8 28 4.8 24.1 0.20 7.49 6.20 93 1010.9
20260506193041 8 9 3.2 19.3 0.20 7.44 6.15 94 1010.8
20260506191528 7 220 6.4 14.5 0.20 7.39 6.10 93 1010.8
20260506190038 7 360 3.2 9.7 0.20 7.34 6.05 93 1010.1
20260506184537 7 350 3.2 8.0 0.20 7.34 5.99 93 1010.0
20260506183027 7 350 8.0 14.5 0.23 7.29 5.94 93 1009.8
20260506181531 7 355 6.4 12.9 0.30 7.24 5.87 92 1009.6
20260506180036 7 12 8.0 12.9 0.53 7.19 5.82 92 1009.4
20260506174533 7 341 8.0 16.1 0.64 7.14 5.77 92 1009.3
20260506173020 8 73 3.2 17.7 0.64 7.06 5.71 93 1009.3
20260506171535 7 45 8.0 17.7 0.64 6.91 5.56 93 1009.2
20260506170029 7 15 6.4 14.5 0.69 6.65 5.31 92 1009.1
20260506164551 7 18 1.6 9.7 1.17 6.53 5.13 92 1008.7
20260506163037 7 360 0.0 9.7 2.54 6.45 5.08 91 1008.3
20260506161528 8 227 6.4 24.1 3.38 6.30 4.93 90 1007.9
20260506160022 7 18 11.3 24.1 3.25 5.99 4.62 90 1008.2
20260506154539 8 325 8.0 25.7 2.64 5.41 3.99 86 1008.2
20260506153026 11 325 6.4 33.8 1.17 3.94 2.51 85 1007.4
20260506151520 13 96 12.9 30.6 0.20 2.97 1.55 83 1007.0
20260506150035 13 72 8.0 19.3 0.03 2.79 1.37 81 1007.0
20260506144527 14 285 0.0 4.8 0.00 2.92 1.35 83 1007.4
20260506143025 14 360 6.4 16.1 0.00 2.92 1.35 82 1007.4
20260506141542 14 120 9.7 27.4 0.00 2.92 1.35 80 1007.5
20260506140029 14 123 3.2 11.3 0.00 2.92 1.35 80 1008.0
20260506134522 15 267 3.2 12.9 0.00 3.00 1.35 82 1008.3
20260506133046 14 207 9.7 14.5 0.00 3.00 1.35 84 1008.5
20260506131526 14 153 4.8 12.9 0.00 3.00 1.35 86 1008.6
20260506130020 14 106 4.8 11.3 0.00 3.00 1.35 84 1008.7
20260506124531 13 178 1.6 19.3 0.00 3.05 1.35 91 1008.7
20260506123027 13 86 4.8 12.9 0.00 3.05 1.35 88 1008.5
20260506121519 13 131 4.8 16.1 0.00 3.05 1.35 89 1008.6
20260506120050 13 360 1.6 12.9 0.00 3.05 1.35 89 1008.6
20260506114532 13 246 1.6 8.0 0.00 3.10 1.35 85 1008.6
20260506113020 13 105 1.6 8.0 0.00 3.10 1.35 90 1008.9
20260506111531 13 360 3.2 8.0 0.00 3.10 1.35 90 1009.0
20260506110029 13 360 0.0 4.8 0.00 3.10 1.35 88 1009.0
20260506104534 13 360 1.6 6.4 0.00 3.10 1.35 92 1009.3
20260506103043 13 182 1.6 6.4 0.00 3.10 1.35 92 1009.3
20260506101527 13 199 3.2 8.0 0.10 3.10 1.35 89 1009.2
20260506100022 12 308 1.6 11.3 0.18 3.10 1.35 93 1009.4
20260506094534 11 360 1.6 9.7 0.38 3.10 1.35 92 1009.3
20260506093027 11 10 1.6 6.4 0.41 3.10 1.35 92 1009.3
20260506091521 11 66 12.9 22.5 0.30 3.00 1.24 92 1009.0
20260506090031 11 79 6.4 14.5 0.23 2.90 1.17 93 1009.0
20260506084606 11 207 0.0 4.8 0.08 2.87 0.97 93 1008.9
20260506083023 11 148 0.0 3.2 0.05 2.84 0.94 93 1008.7
20260506081547 11 146 0.0 3.2 0.08 2.84 0.94 93 1008.7
20260506073033 11 92 0.0 0.0 0.13 3.17 0.89 93 1009.1
20260506071526 11 94 1.6 4.8 0.10 3.15 0.86 93 1009.2
20260506061521 11 45 0.0 0.0 0.08 3.07 0.76 93 1009.5
20260506044536 11 15 4.8 16.1 0.08 2.90 0.61 94 1009.7
20260506043143 11 47 6.4 14.5 0.00 2.84 0.53 94 1009.8
20260506041522 11 44 3.2 6.4 0.00 2.84 0.53 94 1009.8
20260506040035 11 45 0.0 3.2 0.00 2.84 0.53 94 1009.7
20260506034523 11 43 1.6 4.8 0.00 2.84 0.53 95 1009.6
20260506033035 11 44 1.6 6.4 0.03 2.84 0.53 95 1009.7
20260506031538 11 33 1.6 4.8 0.03 2.84 0.53 95 1009.9
20260506030021 11 65 3.2 6.4 0.03 2.84 0.53 95 1010.2
20260506024537 11 55 0.0 3.2 0.03 2.84 0.53 95 1010.4
20260506023048 11 52 0.0 4.8 0.00 2.82 0.51 95 1010.6
20260506021547 11 44 3.2 8.0 0.00 2.82 0.51 95 1010.8
20260506020040 11 108 0.0 6.4 0.00 2.82 0.51 95 1010.9
20260506014533 11 50 0.0 3.2 0.00 2.82 0.51 95 1010.8
20260506013033 11 71 3.2 4.8 0.00 2.82 0.51 95 1010.8
20260506011541 11 101 0.0 12.9 0.00 2.82 0.51 95 1011.0
20260506010035 11 57 1.6 6.4 0.00 2.82 0.51 95 1011.0
20260506004527 11 119 4.8 17.7 0.00 2.82 0.51 95 1011.2
20260506003038 11 84 4.8 9.7 0.00 2.82 0.51 95 1011.3
20260506001536 11 88 3.2 6.4 0.03 2.82 0.51 95 1011.5
20260506000028 11 360 1.6 6.4 0.05 2.82 0.51 94 1011.7